Regional Weather Roundup
Issued by NWS Boston, MA

Current Version | Previous Version | Text Only | Print | Product List | Glossary Off
Versions: 1 2 3 4 5 6 7 8 9 10 11 12 13 14 15 16 17 18 19 20 21 22 23 24 25 26 27 28 29 30 31 32 33 34 35 36 37 38 39 40 41 42 43 44 45 46 47 48 49 50
000 ASUS41 KBOX 240210 RWRBOX REGIONAL WEATHER ROUNDUP NATIONAL WEATHER SERVICE TAUNTON MA 1000 PM EDT THU MAR 23 2017 NOTE: "FAIR" INDICATES FEW OR NO CLOUDS BELOW 12,000 FEET WITH NO SIGNIFICANT WEATHER AND/OR OBSTRUCTIONS TO VISIBILITY. MAZALL-240300- EASTERN MASSACHUSETTS CITY SKY/WX TMP DP RH WIND PRES REMARKS BOSTON CLEAR 34 4 28 W8 30.53R WCI 27 BEVERLY CLEAR 29 5 36 NW3 30.51R LAWRENCE CLEAR 30 4 33 W5 30.53R WCI 25 BEDFORD CLEAR 28 3 34 W5 30.51R WCI 23 BLUE HILL N/A 27 5 39 W13 30.48 WCI 16 NORWOOD CLEAR 27 9 46 W5 30.53R WCI 22 MARSHFIELD CLEAR 28 5 37 CALM 30.52R PLYMOUTH CLEAR 28 3 34 SW5 30.52R WCI 23 TAUNTON CLEAR 24 8 50 W6 30.52R WCI 17 NEW BEDFORD CLEAR 29 5 36 CALM 30.52R $$ MAZALL-240300- CAPE COD AND THE ISLANDS CITY SKY/WX TMP DP RH WIND PRES REMARKS FALMOUTH CLEAR 28 1 31 MISG 30.53R HYANNIS CLEAR 32 3 29 W7 30.50R WCI 26 CHATHAM CLEAR 33 9 36 CALM 30.53R PROVINCETOWN CLEAR 36 11 35 NW15G22 30.51R WCI 27 NANTUCKET CLEAR 33 11 39 NW9 30.53R WCI 25 MARTHAS VNYRD CLEAR 33 7 33 CALM 30.53R $$ MAZALL-240300- CENTRAL AND WESTERN MASSACHUSETTS CITY SKY/WX TMP DP RH WIND PRES REMARKS WORCESTER CLEAR 27 0 31 W10 30.48 WCI 17 FITCHBURG CLEAR 27 8 44 CALM 30.52R ORANGE CLEAR 21 12 68 CALM 30.52R SPRINGFIELD PTCLDY 27 6 41 CALM 30.53R WESTFIELD CLEAR 24 11 57 SE3 30.54R NORTH ADAMS CLEAR 24 10 55 CALM 30.52R PITTSFIELD CLEAR 25 3 38 CALM 30.47R $$ RIZALL-240300- RHODE ISLAND CITY SKY/WX TMP DP RH WIND PRES REMARKS PROVIDENCE CLEAR 30 3 31 W5 30.54R WCI 25 NEWPORT CLEAR 32 8 36 W3 30.53R BLOCK ISLAND CLEAR 35 6 29 W6 30.56R WCI 30 SMITHFIELD CLEAR 27 5 39 SW3 30.52R WESTERLY CLEAR 27 12 53 CALM 30.56R $$ CTZALL-240300- CONNECTICUT CITY SKY/WX TMP DP RH WIND PRES REMARKS BRADLEY INTL CLEAR 28 7 41 W3 30.55R HARTFORD CLEAR 30 14 51 CALM 30.57R BRIDGEPORT CLEAR 32 16 51 CALM 30.57R DANBURY CLEAR 27 12 53 CALM 30.55R GROTON CLEAR 31 5 33 CALM 30.56R NEW HAVEN CLEAR 24 14 65 CALM 30.57R CHESTER FAIR 30 1 29 CALM 30.55R MERIDEN CLEAR 28 14 55 CALM 30.56R WILLIMANTIC CLEAR 28 11 48 CALM 30.55R OXFORD CLEAR 25 3 39 N3 30.54R $$ MEZ002-015-021-024-NHZ003-005-008-011-012-014-VTZ005-008-240300- NORTHERN NEW ENGLAND CITY SKY/WX TMP DP RH WIND PRES REMARKS PORTLAND ME PTCLDY 27 -1 30 CALM 30.50R BANGOR ME CLEAR 20 -4 34 W6 30.46R WCI 12 CONCORD NH PTCLDY 28 2 32 CALM 30.50R MANCHESTER NH NOT AVBL NASHUA NH CLEAR 26 11 52 W3 30.51R PORTSMOUTH NH MOCLDY 29 0 28 W5 30.49R WCI 24 JAFFREY NH NOT AVBL KEENE NH NOT AVBL BURLINGTON VT CLOUDY 29 6 38 CALM 30.47F MT. WASHINGTON PTCLDY 5 -20 30 NW51 N/A WCI -24 $$ NYZ052-076-240300- EASTERN NEW YORK CITY SKY/WX TMP DP RH WIND PRES REMARKS ALBANY PTCLDY 28 7 41 CALM 30.53R NEW YORK CITY CLEAR 40 21 46 S8 30.56R $$ ANZALL-240300- MARINE OBSERVATIONS STATION/POSITION TIME TEMP WIND PRES VSBY WAVE AIR SEA DIR/SP/G HT/PER (UTC) (F) (DEG/KT/KT) (MB) (MI) (FT/S) BOSTON BUOY 0150 37 40 310/ 14/ 17 1032.7R 2/ 3 BUZZARDS BAY 0100 36 300/ 14/ 16 1034.0R NANTUCKET SOUND 0150 39 1033.3R 1/ 3 MASS BAY-STELLWA 0104 36 38 300/ 12/ 14 1031.3R 2/ 4 ISLE OF SHOALS 0200 33 300/ 14/ 17 1032.6R S OF BLOCK IS 0155 40 N/A 4/ 5 $$ ......................KEY......................... SKY/WX - SKY CONDITION/PRESENT WEATHER TMP - TEMPERATURE IN FAHRENHEIT DWPT - DEWPOINT IN FAHRENHEIT RH - RELATIVE HUMIDITY IN PERCENT WIND - DIRECTION AND SPEED IN MPH PRES - MEAN SEA LEVEL PRESSURE IN INCHES OF HG WCI - WIND CHILL INDEX VSB - VISIBILITY IN MILES HX - HEAT INDEX TC - TEMPERATURE IN CELSIUS VRB - VARIABLE WIND DIRECTION N/A - NOT AVAILABLE

USA.gov is the U.S. government's official web portal to all federal, state and local government web resources and services.